This is the latest recevied weather packets stored in our database for station/object JF1AJE-13. If no packets are shown the sender has not sent any weather packets the latest 10 day(s).
| Time | Temp. | Humidity | Pressure | Rain* | Wind** | Luminosity | Snow |
|---|---|---|---|---|---|---|---|
| 1777622949 | 20° C | 69% | 987.6 hPa | 0 mm | - | - | - |
| 1777621748 | 20° C | 69% | 987.7 hPa | 0 mm | - | - | - |
| 1777620546 | 20° C | 71% | 988.9 hPa | 0 mm | - | - | - |
| 1777619347 | 20° C | 76% | 989.2 hPa | 0 mm | - | - | - |
| 1777618147 | 18.89° C | 81% | 989.7 hPa | 0 mm | - | - | - |
| 1777616948 | 17.78° C | 85% | 990.7 hPa | 0 mm | - | - | - |
| 1777615747 | 17.22° C | 89% | 990.9 hPa | 0 mm | - | - | - |
| 1777614547 | 16.67° C | 92% | 991.5 hPa | 0 mm | - | - | - |
| 1777613347 | 15.56° C | 93% | 991.8 hPa | 0 mm | - | - | - |
| 1777612147 | 15° C | 93% | 993 hPa | 0 mm | - | - | - |
| 1777610948 | 15° C | 93% | 993.1 hPa | 0 mm | - | - | - |
| 1777609750 | 15.56° C | 93% | 994.2 hPa | 0.25 mm | - | - | - |
| 1777608549 | 15° C | 93% | 995 hPa | 0.25 mm | - | - | - |
| 1777607347 | 15° C | 93% | 994.9 hPa | 0.51 mm | - | - | - |
| 1777606148 | 15° C | 93% | 996.1 hPa | 1.02 mm | - | - | - |
| 1777604949 | 14.44° C | 93% | 996.5 hPa | 1.02 mm | - | - | - |
| 1777603748 | 13.89° C | 93% | 997.2 hPa | 1.52 mm | - | - | - |
| 1777602549 | 13.89° C | 93% | 997.9 hPa | 1.52 mm | - | - | - |
| 1777601347 | 13.89° C | 93% | 998.2 hPa | 1.52 mm | - | - | - |
| 1777600147 | 13.33° C | 93% | 998.8 hPa | 1.52 mm | - | - | - |
| 1777598948 | 13.33° C | 93% | 1000.8 hPa | 2.29 mm | - | - | - |
| 1777597750 | 12.78° C | 93% | 1000.5 hPa | 2.29 mm | - | - | - |
| 1777596548 | 12.78° C | 93% | 1001.2 hPa | 4.32 mm | - | - | - |
| 1777595347 | 12.78° C | 93% | 1002 hPa | 5.08 mm | - | - | - |
| 1777594147 | 12.22° C | 93% | 1002.2 hPa | 5.08 mm | - | - | - |
* Rain latest hour (hover to see other rain measurements)
** Current wind speed in m/s (hover to see current wind gust speed)